sat.trackr.live / text

‹ back to catalog

STARLINK-31805

NORAD 59745 · 2024-090R

PAYLOAD ACTIVE UNKNOWN

§ Identity

Operator
Country
US
Launch date
2024-05-13
Launch site
AFETR
Launch vehicle
Mass (kg)
RCS (m²)

Purposes: comms

External: N2YO · Heavens-Above · Gunter

§ Orbital elements

Epoch: 2026-09-21T03:00:40.203648Z

Period
94.27 min
Inclination
43.0014°
Eccentricity
0.0001390
Mean motion
15.27579774 rev/d
Perigee alt
482.1 km
Apogee alt
484.0 km
Semi-major
6,861.2 km
B*
2.4580e-5
RAAN
159.4185°
Arg perigee
261.3525°
Mean anomaly
98.7169°
Rev number
13,333

§ Raw data

STARLINK-318051 59745U 24090R   26264.12546532  .00000414  00000+0  24580-4 0  99942 59745  43.0014 159.4185 0001390 261.3525  98.7169 15.27579774133331

JSON: /api/v1/satellites/59745 · /tle

For live sub-satellite position, see the globe view (requires WebGL).

§ Visibility from observer

Set your observer location to see the next 7 days of passes ≥ 10°. The values pass through the URL so the page stays shareable.

No JS? Fill the form by hand. The geolocation button needs JavaScript.